TimeEDT,TemperatureF,Dew PointF,Humidity,Sea Level PressureIn,VisibilityMPH,Wind Direction,Wind SpeedMPH,Gust SpeedMPH,PrecipitationIn,Events,Conditions,WindDirDegrees,DateUTC
12:51 AM,64.0,54.0,70,30.13,10.0,Calm,Calm,-,N/A,,Scattered Clouds,0,2013-07-31 04:51:00
1:51 AM,62.1,54.0,75,30.13,10.0,Calm,Calm,-,N/A,,Scattered Clouds,0,2013-07-31 05:51:00
2:51 AM,62.1,54.0,75,30.13,10.0,Calm,Calm,-,N/A,,Partly Cloudy,0,2013-07-31 06:51:00
3:51 AM,59.0,54.0,83,30.14,10.0,Calm,Calm,-,N/A,,Partly Cloudy,0,2013-07-31 07:51:00
4:51 AM,59.0,55.0,87,30.14,10.0,Calm,Calm,-,N/A,,Partly Cloudy,0,2013-07-31 08:51:00
5:51 AM,57.0,54.0,89,30.16,10.0,Calm,Calm,-,N/A,,Partly Cloudy,0,2013-07-31 09:51:00
6:51 AM,60.1,55.9,86,30.17,10.0,Calm,Calm,-,N/A,,Mostly Cloudy,0,2013-07-31 10:51:00
7:51 AM,64.9,55.9,73,30.17,10.0,Calm,Calm,-,N/A,,Scattered Clouds,0,2013-07-31 11:51:00
8:51 AM,69.1,57.0,65,30.17,10.0,Variable,3.5,-,N/A,,Scattered Clouds,0,2013-07-31 12:51:00
9:51 AM,71.1,57.0,61,30.15,10.0,Variable,4.6,-,N/A,,Mostly Cloudy,0,2013-07-31 13:51:00
10:51 AM,73.9,57.0,55,30.14,10.0,West,4.6,-,N/A,,Mostly Cloudy,260,2013-07-31 14:51:00
11:51 AM,75.9,57.0,52,30.13,10.0,Variable,5.8,-,N/A,,Mostly Cloudy,0,2013-07-31 15:51:00
12:51 PM,78.1,57.0,48,30.11,10.0,South,4.6,-,N/A,,Mostly Cloudy,170,2013-07-31 16:51:00
1:51 PM,79.0,55.9,45,30.10,10.0,Calm,Calm,-,N/A,,Mostly Cloudy,0,2013-07-31 17:51:00
2:51 PM,78.1,57.0,48,30.09,10.0,Variable,3.5,-,N/A,,Mostly Cloudy,0,2013-07-31 18:51:00
3:51 PM,79.0,55.9,45,30.07,10.0,WSW,3.5,-,N/A,,Mostly Cloudy,250,2013-07-31 19:51:00
4:51 PM,80.1,57.9,47,30.05,10.0,Calm,Calm,-,N/A,,Mostly Cloudy,0,2013-07-31 20:51:00
5:51 PM,79.0,57.0,47,30.05,10.0,South,8.1,-,N/A,,Mostly Cloudy,170,2013-07-31 21:51:00
6:51 PM,78.1,55.0,45,30.04,10.0,South,6.9,-,N/A,,Mostly Cloudy,180,2013-07-31 22:51:00
7:51 PM,75.9,57.0,52,30.03,10.0,South,6.9,-,N/A,,Mostly Cloudy,170,2013-07-31 23:51:00
8:51 PM,71.1,57.9,63,30.02,10.0,SE,3.5,-,N/A,,Scattered Clouds,130,2013-08-01 00:51:00
9:51 PM,69.1,57.9,68,30.03,10.0,Calm,Calm,-,N/A,,Scattered Clouds,0,2013-08-01 01:51:00
10:51 PM,69.1,59.0,70,30.03,10.0,SSE,3.5,-,N/A,,Mostly Cloudy,150,2013-08-01 02:51:00
11:51 PM,69.1,59.0,70,30.02,10.0,South,4.6,-,N/A,,Scattered Clouds,170,2013-08-01 03:51:00